Weather History for KOWD - January, 2013

Change the Weather History Date:

Tuesday, January 1, 2013

  Actual Average Record
Temperature  
Mean Temperature 30 °F -  
Max Temperature 37 °F 36 °F 57 °F (2011)
Min Temperature 21 °F 20 °F 5 °F (2009)
Degree Days  
Heating Degree Days 35    
Moisture  
Dew Point 16 °F    
Average Humidity 52    
Maximum Humidity 64    
Minimum Humidity 42    
Precipitation  
Precipitation 0.00 in - - ()
Sea Level Pressure  
Sea Level Pressure 29.80 in    
Wind  
Wind Speed 9 mph (West)    
Max Wind Speed 20 mph    
Max Gust Speed 28 mph    
Visibility 10 miles    
Events      
Averages and records for this station are not official NWS values.
T = Trace of Precipitation, MM = Missing Value Source: NWS Daily Summary

Daily Weather History Graph

Daily Weather History Graph

Search for Another Location

Airport or City:

Trip Planner

Search our weather history database for the weather conditions in past years. The results will help you decide how hot, cold, wet, or windy it might be!

Date:

Astronomy

Jan. 01, 2013 Rise Set
Actual Time 7:13 AM EST 4:23 PM EST
Civil Twilight 6:41 AM EST 4:55 PM EST
Nautical Twilight 6:06 AM EST 5:30 PM EST
Astronomical Twilight 5:32 AM EST 6:04 PM EST
Moon 8:56 PM EST (1/1) 9:19 AM EST (1/1)
Length of Visible Light 10h 13m
Length of Day
9h 10m
Waning Gibbous, 83% of the Moon is Illuminated
Jan 1
Waning Gibbous
Jan 4
Last Quarter
Jan 11
New
Jan 18
First Quarter
Jan 26
Full

Hourly Weather History & Observations

Time (EST) Temp. Windchill Dew Point Humidity Pressure Visibility Wind Dir Wind Speed Gust Speed Precip Events Conditions
12:53 AM 34.0 °F 28.8 °F 21.9 °F 61% 29.76 in 10.0 mi SSW 5.8 mph - N/A   Overcast
1:53 AM 35.1 °F 28.6 °F 21.0 °F 57% 29.77 in 10.0 mi West 8.1 mph - N/A   Overcast
2:53 AM 35.1 °F 28.6 °F 21.9 °F 59% 29.75 in 10.0 mi SW 8.1 mph - N/A   Overcast
3:53 AM 35.1 °F 32.2 °F 21.9 °F 59% 29.74 in 10.0 mi SW 3.5 mph - N/A   Overcast
4:53 AM 35.1 °F 29.3 °F 23.0 °F 61% 29.75 in 10.0 mi SW 6.9 mph - N/A   Overcast
6:53 AM 35.1 °F 27.9 °F 23.0 °F 61% 29.75 in 10.0 mi SW 9.2 mph - N/A   Mostly Cloudy
7:53 AM 35.1 °F 29.3 °F 24.1 °F 64% 29.76 in 10.0 mi SW 6.9 mph - N/A   Overcast
8:53 AM 36.0 °F 29.0 °F 24.1 °F 62% 29.77 in 10.0 mi West 9.2 mph - N/A   Overcast
9:53 AM 37.0 °F 27.0 °F 18.0 °F 46% 29.79 in 10.0 mi West 18.4 mph 26.5 mph N/A   Partly Cloudy
10:53 AM 36.0 °F 26.0 °F 17.1 °F 46% 29.78 in 10.0 mi NW 17.3 mph 27.6 mph 0.00 in   Partly Cloudy
11:53 AM 36.0 °F 25.3 °F 16.0 °F 44% 29.78 in 10.0 mi West 19.6 mph 26.5 mph N/A   Clear
12:53 PM 35.1 °F 24.8 °F 15.1 °F 44% 29.75 in 10.0 mi West 17.3 mph 27.6 mph N/A   Partly Cloudy
1:53 PM 35.1 °F 25.2 °F 14.0 °F 42% 29.75 in 10.0 mi NW 16.1 mph 24.2 mph N/A   Mostly Cloudy
2:53 PM 33.1 °F 21.5 °F 12.9 °F 43% 29.76 in 10.0 mi WNW 19.6 mph 26.5 mph N/A   Partly Cloudy
3:53 PM 30.9 °F 21.7 °F 12.0 °F 46% 29.78 in 10.0 mi West 11.5 mph - N/A   Clear
4:53 PM 30.0 °F 23.2 °F 12.0 °F 47% 29.80 in 10.0 mi WNW 6.9 mph - N/A   Clear
5:53 PM 30.0 °F 19.5 °F 10.9 °F 45% 29.83 in 10.0 mi West 13.8 mph 19.6 mph N/A   Clear
6:53 PM 28.0 °F 20.8 °F 10.9 °F 49% 29.86 in 10.0 mi WNW 6.9 mph - N/A   Clear
7:53 PM 26.1 °F 20.5 °F 10.9 °F 53% 29.88 in 10.0 mi WNW 4.6 mph - N/A   Clear
8:53 PM 24.1 °F 17.0 °F 10.9 °F 57% 29.89 in 10.0 mi WNW 5.8 mph - N/A   Clear
9:53 PM 23.0 °F 14.7 °F 9.0 °F 55% 29.90 in 10.0 mi NW 6.9 mph - N/A   Clear
10:53 PM 23.0 °F 14.7 °F 6.1 °F 48% 29.92 in 10.0 mi WNW 6.9 mph - N/A   Clear
11:53 PM 21.0 °F 14.6 °F 5.0 °F 50% 29.93 in 10.0 mi WNW 4.6 mph - N/A   Clear